Tracking 25734 objects as of 27-May-2022
HD Live streaming from Space Station
objects crossing your sky now

SL-16 DEB

Track SL-16 DEB now!
10-day predictions


NORAD ID: 42237
Int'l Code: 1993-016CR
Perigee: 732.2 km
Apogee: 915.2 km
Inclination: 71.0 °
Period: 101.2 minutes
Semi major axis: 7194 km
RCS: Unknown
Launch date: March 26, 1993
Source: Commonwealth of Independent States (former USSR) (CIS)
Launch site: PLESETSK MISSILE AND SPACE COMPLEX (PKMTR)

Note: This is SATELLITE DEBRIS
aabbcc
Your satellite tracking list
Your tracking list is empty




NASA's NSSDC Master Catalog

Two Line Element Set (TLE):
1 42237U 93016CR  22128.15416906  .00005058  00000-0  21006-2 0  9993
2 42237  70.9573 277.0683 0127167 344.1806  15.5362 14.22606985981300
Source of the keplerian elements: AFSPC